Rolla, MO

8:28 AM CDT on March 27, 2017 (GMT -0500)
Rolla National

Weather History for KVIH - November, 2012

Change the Weather History Date:

Thursday, November 8, 2012

  Actual Average Record
Temperature  
Mean Temperature 44 °F 49 °F  
Max Temperature 59 °F 59 °F 79 °F (2005)
Min Temperature 28 °F 38 °F 6 °F (1991)
Degree Days  
Heating Degree Days 21 17  
Month to date heating degree days 165 122  
Since 1 July heating degree days 630 472  
Cooling Degree Days 0 0  
Month to date cooling degree days 0 0  
Year to date cooling degree days 1691 1243  
Moisture  
Dew Point 34 °F    
Average Humidity 65    
Maximum Humidity 88    
Minimum Humidity 42    
Precipitation  
Precipitation 0.00 in 0.13 in 1.88 in (1897)
Month to date precipitation 0.34 1.00  
Year to date precipitation 30.00 38.10  
Sea Level Pressure  
Sea Level Pressure 30.12 in    
Wind  
Wind Speed 11 mph (SSE)    
Max Wind Speed 30 mph    
Max Gust Speed 37 mph    
Visibility 10 miles    
Events      
T = Trace of Precipitation, MM = Missing Value Source: NWS Daily Summary

Daily Weather History Graph

Daily Weather History Graph

Search for Another Location

Airport or City:

Trip Planner

Search our weather history database for the weather conditions in past years. The results will help you decide how hot, cold, wet, or windy it might be!

Date:

Astronomy

Nov. 08, 2012 Rise Set
Actual Time 6:41 AM CST 5:00 PM CST
Civil Twilight 6:13 AM CST 5:27 PM CST
Nautical Twilight 5:41 AM CST 5:59 PM CST
Astronomical Twilight 5:10 AM CST 6:30 PM CST
Moon 12:41 AM CST (11/8) 1:36 PM CST (11/8)
Length of Visible Light 11h 14m
Length of Day
10h 19m
Waning Crescent, 32% of the Moon is Illuminated
Nov 8
Waning Crescent
Nov 13
New
Nov 20
First Quarter
Nov 28
Full
Dec 6
Last Quarter

Hourly Weather History & Observations

Time (CST) Temp. Windchill Dew Point Humidity Pressure Visibility Wind Dir Wind Speed Gust Speed Precip Events Conditions
12:53 AM 35.1 °F 29.3 °F 30.0 °F 82% 30.17 in 10.0 mi SE 6.9 mph - N/A   Clear
1:53 AM 33.1 °F 26.9 °F 28.9 °F 85% 30.18 in 10.0 mi SSE 6.9 mph - N/A   Clear
2:53 AM 33.1 °F 27.7 °F 28.0 °F 82% 30.18 in 10.0 mi SSE 5.8 mph - N/A   Clear
3:53 AM 32.0 °F 25.6 °F 28.9 °F 88% 30.18 in 10.0 mi SSE 6.9 mph - N/A   Clear
4:53 AM 32.0 °F 24.8 °F 28.9 °F 88% 30.18 in 10.0 mi SSE 8.1 mph - N/A   Clear
5:53 AM 33.1 °F 26.1 °F 28.9 °F 85% 30.18 in 10.0 mi South 8.1 mph - N/A   Clear
6:53 AM 35.1 °F 27.9 °F 30.0 °F 82% 30.18 in 10.0 mi South 9.2 mph - N/A   Clear
7:53 AM 39.0 °F 32.3 °F 32.0 °F 76% 30.19 in 10.0 mi South 10.4 mph 35.7 mph N/A   Clear
8:48 AM 44.6 °F 37.8 °F 33.8 °F 66% 30.17 in 10.0 mi South 15.0 mph 36.8 mph N/A   Clear
8:53 AM 44.1 °F 37.1 °F 35.1 °F 71% 30.19 in 10.0 mi South 15.0 mph 20.7 mph N/A   Clear
9:02 AM 44.6 °F 37.8 °F 35.6 °F 71% 30.17 in 10.0 mi South 15.0 mph - N/A   Clear
9:53 AM 48.0 °F - 35.1 °F 61% 30.18 in 10.0 mi South 15.0 mph - N/A   Clear
10:53 AM 52.0 °F - 36.0 °F 54% 30.16 in 10.0 mi South 13.8 mph - N/A   Clear
11:53 AM 54.0 °F - 36.0 °F 51% 30.14 in 10.0 mi South 10.4 mph - N/A   Clear
12:53 PM 57.0 °F - 37.9 °F 49% 30.10 in 10.0 mi South 9.2 mph - N/A   Clear
1:53 PM 59.0 °F - 37.9 °F 46% 30.07 in 10.0 mi SSE 10.4 mph - N/A   Clear
2:53 PM 59.0 °F - 36.0 °F 42% 30.06 in 10.0 mi SE 11.5 mph - N/A   Clear
3:53 PM 57.9 °F - 37.0 °F 46% 30.05 in 10.0 mi SSE 13.8 mph - N/A   Clear
4:53 PM 55.0 °F - 36.0 °F 49% 30.05 in 10.0 mi SSE 11.5 mph - N/A   Clear
5:53 PM 52.0 °F - 36.0 °F 54% 30.05 in 10.0 mi SSE 10.4 mph - N/A   Clear
6:53 PM 51.1 °F - 37.0 °F 59% 30.04 in 10.0 mi SSE 11.5 mph - N/A   Clear
7:53 PM 51.1 °F - 36.0 °F 56% 30.04 in 10.0 mi SSE 16.1 mph - N/A   Clear
8:53 PM 50.0 °F - 37.0 °F 61% 30.03 in 10.0 mi South 15.0 mph - N/A   Clear
9:53 PM 48.9 °F - 37.0 °F 64% 30.04 in 10.0 mi South 17.3 mph - N/A   Clear
10:53 PM 48.0 °F - 37.0 °F 66% 30.04 in 10.0 mi South 13.8 mph - N/A   Clear
11:53 PM 48.0 °F - 37.0 °F 66% 30.04 in 10.0 mi South 15.0 mph - N/A   Clear